Weather in Bolshiye Klyuchi

Russia / Republic of Tatarstan     55°58′58″N   48°48′13″E
temp.,
°C
wind,
m/s
gust,
m/s
humid.,
%
clouds,
%
prec.,
mm/h
press.,
hPa
HPBL,
m
18 april, sun
sun1800:00+3ne38822 0.0 1024135
03:00+2ne38840 0.0 1024123
06:00+3ne25765 0.0 1023115
09:00+9ne35545 0.0 1023538
12:00+12ne56435 0.0 10221568
15:00+12ne774670 0.0 10231767
18:00+7ene8116662 0.0 1025824
21:00+5ene7115698 0.0 1026743
19 april, mon
mon1900:00+2ene61261100 0.0 1027525
03:00+2ene7145989 0.0 1028560
06:000ene7145787 0.0 1029612
09:00+4e8114099 0.0 10301146
12:00+6e81131100 0.0 10301542
15:00+7e8102977 0.0 10291643
18:00+5e7113661 0.0 1030961
21:00+2e614449 0.0 1031497
20 april, tue
tue2000:00+1e614500 0.0 1032403
03:000e512540 0.0 1032325
06:00+1e511530 0.0 1033364
09:00+6ese69340 0.0 10331063
12:00+8ese79290 0.0 10321370
15:00+9ese78280 0.0 10301332
18:00+7ese510360 0.0 1029386
21:00+4ese4104867 0.0 1029215
21 april, wed
wed2100:00+3ese5134877 0.0 1028381
03:00+3se61549100 0.0 1027466
06:00+2se81750100 0.0 1026687
09:00+5se91740100 0.0 1025876
12:00+6se91640100 0.1 10231072
15:00+4sse81664100 0.9 10231035
18:00+4sse91773100 0.6 1022948
21:00+2sse81797100 2.4 1022853
22 april, thu
thu2200:00+3sse71597100 1.3 1022786
03:00+3s61294100 2.1 1022637
06:00+3s51095100 0.1 1023479
09:00+4s4894100 0.1 1024423
12:00+8s5674100 0.0 1025661
15:00+10s456320 0.1 10251063
18:00+8sse59775 0.1 1026465
21:00+4sse410925 0.1 1027260